Home   Weather   Vatican City   Past weeks

Flag for Vatican City State Past Weather in Vatican City, Vatican City State — Yesterday and Last 2 Weeks

Now
41 °F

Passing clouds.


Feels Like: 36 °F
Forecast: 33 / 56 °F
Wind: 8 mph from Northeast

Location: Rome Fiumicino

Current Time: Jan 20, 2017 at 11:15:31 pm

Latest Report: Jan 20, 2017 at 10:20 pm


Visibility: N/A

Pressure: 30.33 "Hg

Humidity: 70%

Dew Point: 32 °F

Location of Vatican CityLocation

Past Weather in Vatican City — Graph

°F

Vatican City Temperature Yesterday

Maximum temperature yesterday: 55 °F (at 2:20 pm)
Minimum temperature yesterday: 41 °F (at 3:50 am)
Average temperature yesterday: 46 °F

High & Low Weather Summary for the Past Weeks

 TemperatureHumidityPressure
High59 °F (Jan 13, 4:50 am)94% (Jan 12, 8:20 pm)30.36 "Hg (Jan 12, 8:20 pm)
Low25 °F (Jan 8, 1:20 am)24% (Jan 7, 1:50 pm)29.56 "Hg (Jan 17, 4:50 am)
Average41 °F57%29.98 "Hg
* Reported Jan 5 10:20 pm — Jan 20 10:20 pm, Vatican City, Weather by CustomWeather, © 2017

Note: Actual official high and low records may vary slightly from our data, if they occured in-between our weather recording intervals... More about our weather records

Advertising

Vatican City Weather History for the Previous 24 Hours

Scroll right to see more
 ConditionsComfort  
Time TempWeatherWind HumidityBarometerVisibility
10:20 pm
Fri, Jan 20
41 °FPassing clouds.8 mph70%30.33 "HgN/A
9:50 pm45 °FClear.9 mph66%30.33 "Hg10 mi
9:20 pm41 °FClear.6 mph70%30.33 "Hg10 mi
8:50 pm43 °FPassing clouds.5 mph66%30.33 "HgN/A
8:20 pm43 °FClear.6 mph71%30.33 "Hg10 mi
7:50 pm45 °FClear.8 mph66%30.30 "Hg10 mi
7:20 pm45 °FClear.6 mph66%30.30 "Hg10 mi
6:50 pm45 °FClear.6 mph71%30.30 "Hg10 mi
6:20 pm43 °FClear.2 mph71%30.30 "Hg10 mi
5:50 pm48 °FClear.2 mph62%30.30 "Hg10 mi
5:20 pm54 °FPassing clouds.5 mph51%30.30 "HgN/A
4:50 pm54 °FSunny.5 mph51%30.30 "Hg10 mi
4:20 pm55 °FSunny.3 mph44%30.30 "Hg10 mi
3:50 pm55 °FPassing clouds.5 mph44%30.30 "HgN/A
3:20 pm55 °FPassing clouds.6 mph44%30.30 "HgN/A
2:50 pm55 °FPassing clouds.6 mph44%30.30 "HgN/A
2:20 pm55 °FPassing clouds.7 mph38%30.30 "HgN/A
1:50 pm55 °FPassing clouds.7 mph41%30.30 "HgN/A
1:20 pm55 °FSunny.8 mph41%30.30 "Hg10 mi
12:50 pm54 °FSunny.9 mph44%30.33 "Hg10 mi
12:20 pm54 °FPassing clouds.9 mph47%30.33 "HgN/A
11:50 am52 °FSunny.9 mph47%30.33 "Hg10 mi
11:20 am50 °FSunny.10 mph50%30.36 "Hg10 mi
10:50 am48 °FPassing clouds.10 mph54%30.36 "HgN/A
10:20 am46 °FSunny.10 mph57%30.36 "Hg10 mi
9:50 am45 °FSunny.10 mph61%30.36 "Hg10 mi
9:20 am43 °FSunny.9 mph61%30.33 "Hg10 mi
8:50 am41 °FSunny.7 mph66%30.33 "Hg10 mi
8:20 am37 °FSunny.7 mph75%30.33 "Hg10 mi
7:50 am36 °FSunny.8 mph75%30.33 "Hg10 mi
7:20 am36 °FClear.5 mph75%30.33 "Hg10 mi
6:50 am36 °FClear.7 mph75%30.30 "Hg10 mi
6:20 am37 °FClear.7 mph75%30.30 "Hg10 mi
5:50 am37 °FClear.7 mph75%30.30 "Hg10 mi
4:50 am37 °FClear.7 mph75%30.30 "Hg10 mi
4:20 am39 °FClear.8 mph70%30.30 "Hg10 mi
3:50 am37 °FClear.6 mph75%30.30 "Hg10 mi
3:20 am39 °FClear.7 mph70%30.30 "Hg10 mi
2:50 am39 °FClear.5 mph70%30.30 "Hg10 mi
2:20 am39 °FClear.5 mph70%30.30 "Hg10 mi
1:50 am41 °FClear.7 mph66%30.30 "Hg10 mi
1:20 am41 °FClear.7 mph66%30.30 "Hg10 mi
12:50 am39 °FClear.7 mph70%30.30 "Hg10 mi
12:20 am41 °FClear.7 mph66%30.30 "Hg10 mi
11:50 pm
Thu, Jan 19
41 °FClear.8 mph66%30.30 "Hg10 mi
11:20 pm43 °FClear.6 mph61%30.30 "Hg10 mi
Weather by CustomWeather, © 2017

See weather overviewHow to use our weather pages